Location: S�tio Afonso Gruber
(26.1760°S, 49.5250°W)
Time: 12:22:31
(UTC+00:00)

Cosmos 1844 Rocket - Pass Details

Date: 09 October 2020
Orbit: 823 x 846 km, 71.0° (Epoch: 27 October)

Event Time Altitude Azimuth Distance (km) Brightness Sun altitude
Exits shadow 06:02:58 33° 90° (E) 1,384 4.1 -36.0°
Drops below altitude 10° 06:07:26 10° 140° (SE) 2,473 5.8 -35.1°
Sets 06:10:05 0° 149° (SSE) 3,411 6.6 -34.6°
